TimeCDT,TemperatureF,Dew PointF,Humidity,Sea Level PressureIn,VisibilityMPH,Wind Direction,Wind SpeedMPH,Gust SpeedMPH,PrecipitationIn,Events,Conditions,WindDirDegrees,DateUTC
12:13 AM,53.6,51.8,94,29.84,10.0,NNE,5.8,-,N/A,,Overcast,30,2013-10-03 05:13:00
12:34 AM,53.6,51.8,94,29.84,10.0,NNE,8.1,-,N/A,,Overcast,30,2013-10-03 05:34:00
12:53 AM,53.6,51.8,94,29.84,10.0,North,10.4,-,N/A,,Overcast,10,2013-10-03 05:53:00
1:13 AM,53.6,51.8,94,29.85,10.0,NE,8.1,-,N/A,,Overcast,50,2013-10-03 06:13:00
1:34 AM,53.6,51.8,94,29.85,10.0,NE,8.1,-,N/A,,Overcast,40,2013-10-03 06:34:00
1:54 AM,53.6,51.8,94,29.86,10.0,NNE,8.1,-,N/A,,Overcast,30,2013-10-03 06:54:00
2:13 AM,53.6,51.8,94,29.86,10.0,NNE,6.9,-,N/A,,Overcast,30,2013-10-03 07:13:00
2:33 AM,53.6,51.8,94,29.85,4.0,NE,8.1,-,N/A,,Overcast,40,2013-10-03 07:33:00
2:54 AM,53.6,51.8,94,29.85,2.5,NNE,8.1,-,N/A,,Overcast,30,2013-10-03 07:54:00
3:13 AM,53.6,51.8,94,29.86,2.0,NE,8.1,-,N/A,,Overcast,40,2013-10-03 08:13:00
3:33 AM,53.6,51.8,94,29.86,1.8,NE,8.1,-,N/A,,Overcast,40,2013-10-03 08:33:00
3:54 AM,53.6,51.8,94,29.86,1.2,NE,8.1,-,N/A,,Overcast,40,2013-10-03 08:54:00
4:13 AM,53.6,51.8,94,29.86,1.2,NE,4.6,-,N/A,,Overcast,40,2013-10-03 09:13:00
4:33 AM,53.6,51.8,94,29.86,1.0,NE,5.8,-,N/A,,Overcast,40,2013-10-03 09:33:00
4:53 AM,53.6,51.8,94,29.86,1.2,NE,6.9,-,N/A,,Overcast,50,2013-10-03 09:53:00
5:13 AM,53.6,51.8,94,29.85,1.2,NE,9.2,-,N/A,,Overcast,40,2013-10-03 10:13:00
5:33 AM,53.6,51.8,94,29.85,1.8,NE,4.6,-,N/A,,Overcast,50,2013-10-03 10:33:00
5:54 AM,53.6,51.8,94,29.84,1.8,NNE,9.2,-,N/A,,Overcast,30,2013-10-03 10:54:00
6:13 AM,53.6,51.8,94,29.85,1.2,NNE,6.9,-,N/A,,Overcast,30,2013-10-03 11:13:00
6:33 AM,53.6,51.8,94,29.86,1.2,ENE,5.8,-,N/A,,Overcast,60,2013-10-03 11:33:00
6:53 AM,53.6,51.8,94,29.86,1.5,ENE,8.1,-,N/A,,Overcast,60,2013-10-03 11:53:00
7:14 AM,53.6,51.8,94,29.86,1.8,ENE,6.9,-,N/A,,Overcast,60,2013-10-03 12:14:00
7:33 AM,53.6,51.8,94,29.86,2.0,NE,6.9,-,N/A,,Overcast,40,2013-10-03 12:33:00
7:53 AM,53.6,51.8,94,29.86,3.0,North,6.9,-,N/A,,Overcast,10,2013-10-03 12:53:00
8:13 AM,53.6,51.8,94,29.84,3.0,NE,10.4,16.1,N/A,,Overcast,40,2013-10-03 13:13:00
8:33 AM,53.6,51.8,94,29.86,4.0,NE,8.1,-,N/A,,Overcast,50,2013-10-03 13:33:00
8:53 AM,53.6,51.8,94,29.85,4.0,ENE,9.2,-,N/A,,Overcast,60,2013-10-03 13:53:00
9:13 AM,53.6,51.8,94,29.85,3.0,NE,8.1,-,N/A,,Overcast,40,2013-10-03 14:13:00
9:33 AM,53.6,51.8,94,29.85,2.5,NE,6.9,-,N/A,,Overcast,50,2013-10-03 14:33:00
9:54 AM,53.6,51.8,94,29.85,2.5,NNE,9.2,-,N/A,,Overcast,30,2013-10-03 14:54:00
10:13 AM,53.6,51.8,94,29.85,2.5,NE,9.2,-,N/A,,Overcast,50,2013-10-03 15:13:00
10:33 AM,53.6,51.8,94,29.86,4.0,ENE,8.1,-,N/A,,Overcast,60,2013-10-03 15:33:00
10:54 AM,55.4,53.6,94,29.86,4.0,ENE,6.9,-,N/A,,Overcast,60,2013-10-03 15:54:00
11:13 AM,55.4,53.6,94,29.85,3.0,NE,6.9,-,N/A,,Overcast,50,2013-10-03 16:13:00
11:33 AM,55.4,53.6,94,29.85,3.0,NE,8.1,-,N/A,,Overcast,50,2013-10-03 16:33:00
11:53 AM,57.2,53.6,88,29.85,7.0,NNE,6.9,-,N/A,,Overcast,30,2013-10-03 16:53:00
12:13 PM,57.2,53.6,88,29.86,10.0,NNE,10.4,-,N/A,,Overcast,30,2013-10-03 17:13:00
12:33 PM,57.2,53.6,88,29.87,10.0,North,10.4,-,N/A,,Overcast,10,2013-10-03 17:33:00
12:53 PM,55.4,53.6,94,29.87,10.0,NNE,8.1,-,N/A,,Overcast,30,2013-10-03 17:53:00
1:13 PM,55.4,53.6,94,29.86,7.0,NNE,9.2,-,N/A,,Overcast,30,2013-10-03 18:13:00
1:33 PM,57.2,53.6,88,29.86,10.0,NNE,11.5,-,N/A,,Overcast,30,2013-10-03 18:33:00
1:54 PM,57.2,53.6,88,29.84,10.0,NE,12.7,16.1,N/A,,Overcast,40,2013-10-03 18:54:00
2:13 PM,57.2,53.6,88,29.84,10.0,NNE,12.7,-,N/A,,Overcast,30,2013-10-03 19:13:00
2:33 PM,57.2,53.6,88,29.85,10.0,NNE,8.1,-,N/A,,Overcast,30,2013-10-03 19:33:00
2:53 PM,57.2,53.6,88,29.86,10.0,NE,12.7,-,N/A,,Overcast,40,2013-10-03 19:53:00
3:13 PM,57.2,53.6,88,29.87,10.0,NE,5.8,-,N/A,,Overcast,40,2013-10-03 20:13:00
3:33 PM,57.2,53.6,88,29.86,10.0,NE,5.8,-,N/A,,Overcast,50,2013-10-03 20:33:00
3:53 PM,57.2,53.6,88,29.86,10.0,NE,8.1,-,N/A,,Overcast,50,2013-10-03 20:53:00
4:14 PM,57.2,53.6,88,29.86,10.0,NNE,8.1,-,N/A,,Overcast,30,2013-10-03 21:14:00
4:34 PM,57.2,53.6,88,29.87,10.0,NNE,5.8,-,N/A,,Overcast,30,2013-10-03 21:34:00
4:53 PM,57.2,53.6,88,29.87,10.0,NE,4.6,-,N/A,,Overcast,50,2013-10-03 21:53:00
5:13 PM,57.2,53.6,88,29.87,10.0,NNE,6.9,-,N/A,,Overcast,30,2013-10-03 22:13:00
5:33 PM,57.2,53.6,88,29.87,10.0,NE,6.9,-,N/A,,Overcast,40,2013-10-03 22:33:00
5:53 PM,57.2,53.6,88,29.86,10.0,NE,8.1,-,N/A,,Overcast,40,2013-10-03 22:53:00
6:14 PM,57.2,53.6,88,29.86,10.0,NE,6.9,-,N/A,Rain,Light Rain,50,2013-10-03 23:14:00
6:33 PM,57.2,53.6,88,29.86,10.0,ENE,5.8,-,N/A,,Overcast,60,2013-10-03 23:33:00
6:54 PM,57.2,53.6,88,29.86,10.0,NE,8.1,-,N/A,,Overcast,50,2013-10-03 23:54:00
7:13 PM,57.2,53.6,88,29.86,10.0,NE,9.2,-,N/A,,Overcast,50,2013-10-04 00:13:00
7:33 PM,57.2,53.6,88,29.87,10.0,NE,5.8,-,N/A,,Overcast,40,2013-10-04 00:33:00
7:54 PM,57.2,53.6,88,29.89,10.0,North,4.6,-,N/A,,Overcast,360,2013-10-04 00:54:00
8:13 PM,57.2,53.6,88,29.90,10.0,North,8.1,-,N/A,,Overcast,360,2013-10-04 01:13:00
8:33 PM,57.2,53.6,88,29.90,10.0,NNE,9.2,-,N/A,,Overcast,20,2013-10-04 01:33:00
8:54 PM,55.4,53.6,94,29.91,10.0,NNE,6.9,-,N/A,,Overcast,30,2013-10-04 01:54:00
9:13 PM,57.2,53.6,88,29.92,10.0,NNE,6.9,-,N/A,,Overcast,30,2013-10-04 02:13:00
9:33 PM,57.2,53.6,88,29.93,10.0,NNE,8.1,-,N/A,,Overcast,30,2013-10-04 02:33:00
9:54 PM,57.2,53.6,88,29.95,10.0,NNE,6.9,-,N/A,,Overcast,20,2013-10-04 02:54:00
10:13 PM,55.4,51.8,88,29.95,7.0,NNE,8.1,-,N/A,,Overcast,20,2013-10-04 03:13:00
10:33 PM,53.6,51.8,94,29.95,2.5,NNE,8.1,-,N/A,,Overcast,30,2013-10-04 03:33:00
11:33 PM,53.6,51.8,94,29.95,4.0,NNE,9.2,-,N/A,,Overcast,30,2013-10-04 04:33:00
11:54 PM,53.6,51.8,94,29.95,5.0,NNE,9.2,-,N/A,,Overcast,30,2013-10-04 04:54:00